| time (UTC) | temp F | wind direction | speed knots | gust knots | rain 1hr in | rain 24hr in | rain mn in | humidity % | barometer mb |
| 20260506201506 | 0 | 213 | 0.9 | 4.3 | 0.00 | 0.00 | 0.00 | 1015.6 | |
| 20260506200003 | 0 | 223 | 0.9 | 5.2 | 0.00 | 0.00 | 0.00 | 1015.6 | |
| 20260506194628 | 0 | 234 | 0.9 | 7.0 | 0.00 | 0.00 | 0.00 | 1015.5 | |
| 20260506193103 | 0 | 239 | 0.0 | 9.6 | 0.00 | 0.00 | 0.00 | 1015.5 | |
| 20260506191548 | 0 | 232 | 0.9 | 5.2 | 0.00 | 0.00 | 0.00 | 1015.3 | |
| 20260506190044 | 0 | 236 | 0.0 | 5.2 | 0.00 | 0.00 | 0.00 | 1015.3 | |
| 20260506184540 | 0 | 278 | 0.0 | 7.0 | 0.00 | 0.00 | 0.00 | 1015.1 | |
| 20260506183036 | 0 | 242 | 0.9 | 4.3 | 0.00 | 0.00 | 0.00 | 1015.2 | |
| 20260506181531 | 0 | 217 | 1.7 | 8.7 | 0.00 | 0.00 | 0.00 | 1015.2 | |
| 20260506180027 | 0 | 215 | 1.7 | 7.8 | 0.00 | 0.00 | 0.00 | 1015.1 | |
| 20260506174522 | 0 | 159 | 1.7 | 9.6 | 0.00 | 0.00 | 0.00 | 1015.0 | |
| 20260506173016 | 0 | 246 | 2.6 | 6.1 | 0.00 | 0.00 | 0.00 | 1014.9 | |
| 20260506171513 | 0 | 227 | 1.7 | 6.1 | 0.00 | 0.00 | 0.00 | 1015.0 | |
| 20260506170008 | 0 | 171 | 0.9 | 6.1 | 0.00 | 0.00 | 0.00 | 1014.9 | |
| 20260506164505 | 0 | 226 | 1.7 | 7.0 | 0.00 | 0.00 | 0.00 | 1014.9 | |
| 20260506163121 | 0 | 212 | 1.7 | 9.6 | 0.00 | 0.00 | 0.00 | 1014.9 | |
| 20260506161602 | 0 | 229 | 0.0 | 7.8 | 0.00 | 0.00 | 0.00 | 1014.8 | |
| 20260506160051 | 0 | 227 | 0.9 | 7.0 | 0.00 | 0.00 | 0.00 | 1014.8 | |
| 20260506154606 | 0 | 220 | 2.6 | 7.8 | 0.00 | 0.00 | 0.00 | 1014.8 | |
| 20260506153050 | 0 | 202 | 2.6 | 9.6 | 0.00 | 0.00 | 0.00 | 1014.8 | |
| 20260506151538 | 0 | 244 | 4.3 | 10.4 | 0.00 | 0.00 | 0.00 | 1014.8 | |
| 20260506150034 | 0 | 228 | 0.9 | 8.7 | 0.00 | 0.00 | 0.00 | 1014.9 | |
| 20260506144529 | 0 | 254 | 2.6 | 7.8 | 0.00 | 0.00 | 0.00 | 1015.0 | |
| 20260506143030 | 0 | 292 | 3.5 | 10.4 | 0.00 | 0.00 | 0.00 | 1015.0 | |
| 20260506141520 | 0 | 228 | 3.5 | 7.0 | 0.00 | 0.00 | 0.00 | 1015.0 | |
| 20260506140016 | 0 | 290 | 2.6 | 8.7 | 0.00 | 0.00 | 0.00 | 1015.0 | |
| 20260506134511 | 0 | 238 | 0.9 | 7.8 | 0.00 | 0.00 | 0.00 | 1015.1 | |
| 20260506133008 | 0 | 236 | 3.5 | 8.7 | 0.00 | 0.00 | 0.00 | 1015.1 | |
| 20260506131502 | 0 | 243 | 0.0 | 9.6 | 0.00 | 0.00 | 0.00 | 1015.2 | |
| 20260506130100 | 0 | 249 | 0.9 | 9.6 | 0.00 | 0.00 | 0.00 | 1015.2 | |
| 20260506124554 | 0 | 267 | 0.9 | 8.7 | 0.00 | 0.00 | 0.00 | 1015.2 | |
| 20260506123050 | 0 | 262 | 0.0 | 9.6 | 0.00 | 0.00 | 0.00 | 1015.3 | |
| 20260506120029 | 0 | 259 | 3.5 | 8.7 | 0.00 | 0.00 | 0.00 | 1015.4 | |
| 20260506114531 | 0 | 218 | 1.7 | 8.7 | 0.00 | 0.00 | 0.00 | 1015.4 | |
| 20260506113019 | 0 | 209 | 1.7 | 7.8 | 0.00 | 0.00 | 0.00 | 1015.3 | |
| 20260506111515 | 0 | 257 | 3.5 | 9.6 | 0.00 | 0.00 | 0.00 | 1015.4 | |
| 20260506110010 | 0 | 241 | 5.2 | 11.3 | 0.00 | 0.00 | 0.00 | 1015.4 | |
| 20260506104506 | 0 | 235 | 2.6 | 8.7 | 0.00 | 0.00 | 0.00 | 1015.3 | |
| 20260506103002 | 0 | 296 | 0.9 | 5.2 | 0.00 | 0.00 | 0.00 | 1015.2 | |
| 20260506101605 | 0 | 225 | 1.7 | 8.7 | 0.00 | 0.00 | 0.00 | 1015.2 | |
| 20260506100053 | 0 | 267 | 0.9 | 7.0 | 0.00 | 0.00 | 0.00 | 1015.3 | |
| 20260506094607 | 0 | 224 | 0.9 | 7.8 | 0.00 | 0.00 | 0.00 | 1015.4 | |
| 20260506093052 | 0 | 246 | 2.6 | 9.6 | 0.00 | 0.00 | 0.00 | 1015.4 | |
| 20260506091541 | 0 | 257 | 0.0 | 4.3 | 0.00 | 0.00 | 0.00 | 1015.3 | |
| 20260506090035 | 0 | 147 | 0.0 | 5.2 | 0.00 | 0.00 | 0.00 | 1015.3 | |
| 20260506084531 | 0 | 221 | 0.0 | 4.3 | 0.00 | 0.00 | 0.00 | 1015.3 | |
| 20260506083027 | 0 | 248 | 2.6 | 7.8 | 0.00 | 0.00 | 0.00 | 1015.3 | |
| 20260506081523 | 0 | 258 | 1.7 | 11.3 | 0.00 | 0.00 | 0.00 | 1015.2 | |
| 20260506073011 | 0 | 360 | 2.6 | 7.0 | 0.00 | 0.00 | 0.00 | 1015.2 | |
| 20260506071506 | 0 | 17 | 1.7 | 7.8 | 0.00 | 0.00 | 0.00 | 1015.2 | |
| 20260506061549 | 0 | 46 | 0.0 | 3.5 | 0.00 | 0.00 | 0.00 | 1015.1 | |
| 20260506044530 | 0 | 306 | 0.0 | 0.0 | 0.00 | 0.00 | 0.00 | 1014.8 | |
| 20260506043018 | 0 | 306 | 0.0 | 0.0 | 0.00 | 0.00 | 0.00 | 1014.9 | |
| 20260506041517 | 0 | 306 | 0.0 | 0.0 | 0.00 | 0.00 | 0.00 | 1014.9 | |
| 20260506040032 | 0 | 306 | 0.0 | 0.0 | 0.00 | 0.00 | 0.00 | 1014.8 | |
| 20260506034504 | 0 | 306 | 0.0 | 0.0 | 0.00 | 0.00 | 0.00 | 1014.7 | |
| 20260506033100 | 0 | 306 | 0.0 | 0.0 | 0.00 | 0.00 | 0.00 | 1014.8 | |
| 20260506031604 | 0 | 306 | 0.0 | 0.0 | 0.00 | 0.00 | 0.00 | 1014.7 | |
| 20260506030052 | 0 | 244 | 0.0 | 0.0 | 0.00 | 0.00 | 0.00 | 1014.7 | |
| 20260506024547 | 0 | 244 | 0.0 | 0.0 | 0.00 | 0.00 | 0.00 | 1014.7 | |
| 20260506023044 | 0 | 244 | 0.0 | 0.0 | 0.00 | 0.00 | 0.00 | 1014.8 | |
| 20260506021539 | 0 | 244 | 0.0 | 0.0 | 0.00 | 0.00 | 0.00 | 1014.8 | |
| 20260506020034 | 0 | 244 | 0.0 | 0.0 | 0.00 | 0.00 | 0.00 | 1014.9 | |
| 20260506014532 | 0 | 244 | 0.0 | 0.0 | 0.00 | 0.00 | 0.00 | 1014.9 | |
| 20260506013026 | 0 | 244 | 0.0 | 0.0 | 0.00 | 0.00 | 0.00 | 1014.8 | |
| 20260506011523 | 0 | 244 | 0.0 | 0.0 | 0.00 | 0.00 | 0.00 | 1014.7 | |
| 20260506010016 | 0 | 244 | 0.0 | 0.0 | 0.00 | 0.00 | 0.00 | 1014.9 | |
| 20260506004522 | 0 | 244 | 0.0 | 0.0 | 0.00 | 0.00 | 0.00 | 1014.8 | |
| 20260506003010 | 0 | 244 | 0.0 | 0.0 | 0.00 | 0.00 | 0.00 | 1015.0 | |
| 20260506001503 | 0 | 244 | 0.0 | 0.0 | 0.00 | 0.00 | 0.00 | 1014.9 | |
| 20260505234601 | 0 | 244 | 0.0 | 0.0 | 0.00 | 0.00 | 0.00 | 1014.9 | |
| 20260505233102 | 0 | 244 | 0.0 | 0.0 | 0.00 | 0.00 | 0.00 | 1014.9 | |
| 20260505231552 | 0 | 244 | 0.0 | 0.0 | 0.00 | 0.00 | 0.00 | 1014.9 | |
| 20260505230041 | 0 | 244 | 0.0 | 0.0 | 0.00 | 0.00 | 0.00 | 1014.8 | |
| 20260505224537 | 0 | 244 | 0.0 | 0.0 | 0.00 | 0.00 | 0.00 | 1015.0 | |
| 20260505223036 | 0 | 244 | 0.0 | 0.0 | 0.00 | 0.00 | 0.00 | 1015.0 | |
| 20260505221528 | 0 | 244 | 0.0 | 0.0 | 0.00 | 0.00 | 0.00 | 1014.9 | |
| 20260505220023 | 0 | 244 | 0.0 | 0.0 | 0.00 | 0.00 | 0.00 | 1014.9 | |
| 20260505214522 | 0 | 243 | 0.0 | 0.0 | 0.00 | 0.00 | 0.00 | 1014.8 | |
| 20260505213014 | 0 | 226 | 0.0 | 0.0 | 0.00 | 0.00 | 0.00 | 1014.9 | |
| 20260505211511 | 0 | 226 | 0.0 | 0.0 | 0.00 | 0.00 | 0.00 | 1015.0 | |
| 20260505210006 | 0 | 226 | 0.0 | 0.0 | 0.00 | 0.00 | 0.00 | 1015.0 | |
| 20260505204502 | 0 | 226 | 0.0 | 0.0 | 0.00 | 0.00 | 0.00 | 1014.9 | |
| 20260505203059 | 0 | 226 | 0.0 | 0.0 | 0.00 | 0.00 | 0.00 | 1014.9 |